| time (UTC) | temp C | wind direction | speed KPH | gust KPH | rain 1hr cm | rain 24hr cm | rain mn cm | humidity % | barometer mb |
| 20260506031529 | 3 | 0 | 0.0 | 0.0 | 0.00 | 0.00 | 0.28 | 75 | 1009.0 |
| 20260506030024 | 3 | 0 | 0.0 | 0.0 | 0.00 | 0.00 | 0.28 | 74 | 1009.2 |
| 20260506024536 | 4 | 0 | 0.0 | 0.0 | 0.00 | 0.00 | 0.28 | 72 | 1009.0 |
| 20260506023024 | 4 | 0 | 0.0 | 0.0 | 0.00 | 0.00 | 0.28 | 70 | 1008.9 |
| 20260506021522 | 5 | 0 | 0.0 | 0.0 | 0.00 | 0.00 | 0.28 | 69 | 1008.2 |
| 20260506020024 | 5 | 0 | 0.0 | 0.0 | 0.00 | 0.00 | 0.28 | 69 | 1008.0 |
| 20260506014523 | 5 | 0 | 0.0 | 0.0 | 0.00 | 0.00 | 0.28 | 68 | 1007.8 |
| 20260506013022 | 5 | 54 | 0.0 | 0.0 | 0.00 | 0.00 | 0.28 | 67 | 1007.7 |
| 20260506011549 | 5 | 206 | 0.0 | 0.0 | 0.00 | 0.00 | 0.28 | 71 | 1007.6 |
| 20260506010020 | 5 | 222 | 0.0 | 0.0 | 0.00 | 0.00 | 0.28 | 69 | 1007.7 |
| 20260506004520 | 4 | 222 | 0.0 | 0.0 | 0.00 | 0.00 | 0.28 | 74 | 1008.0 |
| 20260506003020 | 5 | 216 | 0.0 | 0.0 | 0.00 | 0.00 | 0.28 | 73 | 1007.5 |
| 20260506001519 | 5 | 216 | 0.0 | 0.0 | 0.00 | 0.00 | 0.28 | 72 | 1008.0 |
| 20260506000033 | 4 | 191 | 0.0 | 0.0 | 0.00 | 0.00 | 0.28 | 74 | 1007.9 |
| 20260505234535 | 4 | 191 | 0.0 | 0.0 | 0.00 | 0.00 | 0.28 | 74 | 1007.8 |
| 20260505233018 | 5 | 200 | 0.0 | 0.0 | 0.00 | 0.00 | 0.28 | 71 | 1007.3 |
| 20260505231517 | 5 | 209 | 0.0 | 0.0 | 0.00 | 0.00 | 0.28 | 65 | 1007.2 |
| 20260505230035 | 5 | 191 | 0.0 | 0.0 | 0.00 | 0.00 | 0.28 | 69 | 1007.2 |
| 20260505224530 | 6 | 131 | 0.0 | 0.0 | 0.00 | 0.00 | 0.28 | 68 | 1007.3 |
| 20260505223021 | 5 | 295 | 0.0 | 0.0 | 0.00 | 0.00 | 0.28 | 69 | 1007.3 |
| 20260505221513 | 5 | 188 | 1.6 | 0.0 | 0.00 | 0.00 | 0.28 | 71 | 1007.5 |
| 20260505220011 | 5 | 219 | 0.0 | 0.0 | 0.00 | 0.00 | 0.28 | 67 | 1007.8 |
| 20260505214514 | 4 | 185 | 0.0 | 0.0 | 0.00 | 0.00 | 0.28 | 71 | 1008.3 |
| 20260505213009 | 5 | 193 | 0.0 | 0.0 | 0.00 | 0.00 | 0.28 | 69 | 1008.5 |
| 20260505211514 | 4 | 185 | 0.0 | 0.0 | 0.00 | 0.00 | 0.28 | 69 | 1008.6 |
| 20260505210007 | 5 | 209 | 0.0 | 0.0 | 0.00 | 0.00 | 0.28 | 69 | 1008.0 |
| 20260505204504 | 3 | 120 | 0.0 | 0.0 | 0.00 | 0.00 | 0.28 | 77 | 1008.3 |
| 20260505203001 | 2 | 222 | 1.6 | 0.0 | 0.00 | 0.00 | 0.28 | 80 | 1008.9 |
| 20260505201559 | 2 | 223 | 0.0 | 0.0 | 0.00 | 0.00 | 0.28 | 86 | 1008.9 |
| 20260505200056 | 1 | 308 | 0.0 | 0.0 | 0.00 | 0.00 | 0.28 | 86 | 1009.0 |
| 20260505194614 | 1 | 229 | 0.0 | 0.0 | 0.00 | 0.00 | 0.28 | 88 | 1008.9 |
| 20260505193054 | 1 | 206 | 0.0 | 0.0 | 0.00 | 0.00 | 0.28 | 88 | 1009.6 |
| 20260505191605 | 1 | 222 | 0.0 | 0.0 | 0.00 | 0.00 | 0.28 | 90 | 1009.4 |
| 20260505190050 | 1 | 226 | 0.0 | 0.0 | 0.00 | 0.00 | 0.28 | 90 | 1009.3 |
| 20260505184550 | 0 | 234 | 0.0 | 0.0 | 0.00 | 0.00 | 0.28 | 89 | 1009.5 |
| 20260505183053 | 1 | 150 | 0.0 | 0.0 | 0.00 | 0.00 | 0.28 | 90 | 1009.3 |
| 20260505181549 | 1 | 138 | 0.0 | 0.0 | 0.00 | 0.00 | 0.28 | 90 | 1009.3 |
| 20260505180055 | 0 | 157 | 1.6 | 0.0 | 0.00 | 0.00 | 0.28 | 90 | 1009.7 |
| 20260505174548 | 0 | 195 | 0.0 | 0.0 | 0.00 | 0.00 | 0.28 | 90 | 1009.3 |
| 20260505173102 | 0 | 34 | 0.0 | 0.0 | 0.00 | 0.00 | 0.25 | 90 | 1009.1 |
| 20260505171558 | 0 | 165 | 1.6 | 0.0 | 0.00 | 0.00 | 0.25 | 90 | 1008.8 |
| 20260505170046 | 0 | 193 | 1.6 | 0.0 | 0.00 | 0.00 | 0.25 | 90 | 1008.3 |
| 20260505164545 | 1 | 195 | 0.0 | 0.0 | 0.00 | 0.00 | 0.23 | 90 | 1008.1 |
| 20260505163045 | 1 | 220 | 1.6 | 0.0 | 0.00 | 0.00 | 0.20 | 90 | 1007.9 |
| 20260505161543 | 1 | 143 | 0.0 | 0.0 | 0.00 | 0.00 | 0.18 | 90 | 1007.6 |
| 20260505153041 | 0 | 200 | 0.0 | 0.0 | 0.00 | 0.00 | 0.08 | 90 | 1007.7 |
| 20260505151539 | 0 | 152 | 0.0 | 0.0 | 0.00 | 0.00 | 0.03 | 90 | 1007.6 |
| 20260505124542 | 0 | 162 | 0.0 | 0.0 | 0.00 | 0.00 | 0.03 | 89 | 1006.3 |
| 20260505123030 | 0 | 169 | 0.0 | 0.0 | 0.00 | 0.00 | 0.03 | 89 | 1006.6 |
| 20260505121550 | 0 | 168 | 0.0 | 0.0 | 0.00 | 0.00 | 0.03 | 89 | 1006.7 |
| 20260505120029 | 0 | 137 | 0.0 | 0.0 | 0.00 | 0.00 | 0.03 | 88 | 1006.6 |
| 20260505114530 | 0 | 155 | 0.0 | 0.0 | 0.00 | 0.00 | 0.03 | 88 | 1006.7 |
| 20260505113030 | 0 | 171 | 0.0 | 0.0 | 0.00 | 0.00 | 0.03 | 88 | 1006.7 |
| 20260505111534 | 0 | 179 | 1.6 | 0.0 | 0.00 | 0.00 | 0.03 | 88 | 1006.7 |
| 20260505101522 | 0 | 193 | 0.0 | 0.0 | 0.00 | 0.00 | 0.03 | 89 | 1007.0 |
| 20260505100032 | 0 | 136 | 1.6 | 0.0 | 0.00 | 0.00 | 0.03 | 88 | 1006.5 |
| 20260505094518 | 0 | 141 | 3.2 | 0.0 | 0.00 | 0.00 | 0.03 | 88 | 1006.3 |
| 20260505093025 | 0 | 203 | 4.8 | 0.0 | 0.00 | 0.00 | 0.03 | 88 | 1006.6 |
| 20260505091517 | 0 | 154 | 1.6 | 0.0 | 0.00 | 0.00 | 0.03 | 88 | 1006.9 |
| 20260505090013 | 0 | 226 | 0.0 | 0.0 | 0.00 | 0.00 | 0.03 | 88 | 1006.4 |
| 20260505084512 | 0 | 210 | 1.6 | 0.0 | 0.00 | 0.00 | 0.03 | 88 | 1006.6 |
| 20260505083010 | 0 | 206 | 1.6 | 0.0 | 0.00 | 0.00 | 0.03 | 88 | 1007.0 |
| 20260505081514 | 0 | 189 | 0.0 | 0.0 | 0.00 | 0.00 | 0.03 | 88 | 1007.1 |
| 20260505080008 | 0 | 216 | 0.0 | 0.0 | 0.00 | 0.00 | 0.00 | 88 | 1007.2 |
| 20260505074509 | 0 | 220 | 0.0 | 0.0 | 0.00 | 0.00 | 0.00 | 88 | 1007.5 |
| 20260505073007 | 0 | 133 | 0.0 | 0.0 | 0.00 | 0.00 | 0.00 | 88 | 1007.7 |
| 20260505071506 | 0 | 133 | 0.0 | 0.0 | 0.00 | 0.00 | 0.00 | 88 | 1007.8 |
| 20260505070006 | 0 | 220 | 0.0 | 0.0 | 0.00 | 0.00 | 0.00 | 88 | 1007.2 |
| 20260505064505 | 0 | 220 | 0.0 | 0.0 | 0.00 | 0.00 | 0.00 | 88 | 1007.2 |
| 20260505063005 | 0 | 233 | 0.0 | 0.0 | 0.00 | 0.00 | 0.00 | 88 | 1007.3 |
| 20260505061505 | 0 | 128 | 1.6 | 0.0 | 0.00 | 0.00 | 0.00 | 88 | 1007.4 |
| 20260505060004 | 0 | 219 | 0.0 | 0.0 | 0.00 | 0.00 | 0.00 | 88 | 1007.6 |
| 20260505054504 | 0 | 217 | 1.6 | 0.0 | 0.00 | 0.00 | 0.00 | 88 | 1007.6 |
| 20260505053004 | 0 | 257 | 0.0 | 0.0 | 0.00 | 0.00 | 0.00 | 88 | 1007.3 |
| 20260505051501 | 0 | 138 | 1.6 | 0.0 | 0.00 | 0.00 | 0.00 | 88 | 1007.5 |
| 20260505041610 | 0 | 176 | 0.0 | 0.0 | 0.00 | 0.00 | 0.00 | 87 | 1007.6 |
| 20260505040104 | 0 | 151 | 0.0 | 0.0 | 0.00 | 0.00 | 0.00 | 87 | 1007.5 |
| 20260505034558 | 1 | 158 | 1.6 | 0.0 | 0.00 | 0.00 | 0.00 | 87 | 1007.4 |
| 20260505033058 | 1 | 210 | 1.6 | 0.0 | 0.00 | 0.00 | 0.00 | 87 | 1007.3 |